Flag for Switzerland Weather past 2 weeks in Monthey, Valais, Switzerland

Now
63 °F

Mild.


Feels Like: 63 °F
Forecast: 57 / 82 °F
Wind: 1 mph from Southwest

Location: Aigle

Current Time: Jul 31, 2014 at 7:00:07 AM

Latest Report: Jul 31, 2014 at 6:00 AM


Visibility: N/A

Pressure: 29.96 "Hg

Humidity: 98%

Dew point: 62 °F

Location of MontheyLocation

Historic Weather in Monthey — Graph

°F

Monthey temperature yesterday

Maximum temperature yesterday: 65 °F (at 4:00 PM)
Minimum temperature yesterday: 60 °F (at 5:00 AM)
Average temperature yesterday: 62 °F

Past Weeks' High & Low Weather Summary

 TemperatureHumidityPressure
High85 °F (Jul 18, 6:00 PM)99% (Jul 22, 1:00 AM)30.19 "Hg (Jul 22, 1:00 AM)
Low55 °F (Jul 16, 5:00 AM)42% (Jul 19, 4:00 PM)29.79 "Hg (Jul 29, 3:00 PM)
Average66 °F83%29.95 "Hg
* Reported Jul 16 5:00 AM — Jul 31 5:00 AM, Monthey, Weather by CustomWeather, © 2014

Note: Actual official high and low records may vary slightly from our data, if they occured in-between our weather recording intervals... More about our weather records

Advertising

Monthey weather history for previous 24 hours

 ConditionsComfort  
Time TempWeatherWind HumidityBarometerVisibility
5:00 AM
Jul 31
63 °FFog.1 mph98%29.96 "Hg4 mi
4:00 AM63 °FMild.1 mph98%29.97 "HgN/A
3:00 AM63 °FMild.No wind98%29.98 "HgN/A
2:00 AM63 °FMild.No wind97%29.98 "HgN/A
1:00 AM63 °FMild.1 mph97%29.98 "HgN/A
12:00 AM63 °FMild.2 mph98%29.98 "HgN/A
11:00 PM
Jul 30
62 °FMild.2 mph98%29.98 "HgN/A
10:00 PM63 °FMild.2 mph98%29.98 "HgN/A
9:00 PM63 °FMild.2 mph96%29.96 "HgN/A
8:00 PM64 °FOvercast.3 mph90%29.94 "Hg12 mi
7:00 PM64 °FMild.3 mph88%29.93 "HgN/A
6:00 PM64 °FMild.3 mph88%29.93 "HgN/A
5:00 PM64 °FOvercast.5 mph92%29.93 "Hg9 mi
4:00 PM65 °FMild.6 mph93%29.92 "HgN/A
3:00 PM63 °FMild.1 mph90%29.91 "HgN/A
2:00 PM62 °FSprinkles. Low clouds.3 mph95%29.91 "Hg3 mi
1:00 PM62 °FCool.5 mph95%29.91 "HgN/A
12:00 PM61 °FCool.5 mph95%29.89 "HgN/A
11:00 AM62 °FRain. Overcast.1 mph93%29.88 "Hg4 mi
10:00 AM61 °FCool.1 mph93%29.88 "HgN/A
9:00 AM61 °FCool.No wind94%29.87 "HgN/A
8:00 AM61 °FOvercast.1 mph96%29.86 "Hg10 mi
7:00 AM60 °FCool.1 mph98%29.86 "HgN/A
Weather by CustomWeather, © 2014

See weather overviewHow to use our weather pages